Regional Weather Roundup
Issued by NWS Burlington, VT

Home | Current Version | Previous Version | Text Only | Print | Product List | Glossary On
Versions: 1 2 3 4 5 6 7 8 9 10 11 12 13 14 15 16 17 18 19 20 21 22 23 24 25 26 27 28 29 30 31 32 33 34 35 36 37 38 39 40 41 42 43 44 45 46 47 48 49 50
000
ASUS41 KBTV 300810
RWRBTV
VERMONT REGIONAL WEATHER ROUNDUP
NATIONAL WEATHER SERVICE BURLINGTON VT
400 AM EDT SAT AUG 30 2014

NOTE: "FAIR" INDICATES FEW OR NO CLOUDS BELOW 12,000 FEET WITH NO
SIGNIFICANT WEATHER AND/OR OBSTRUCTIONS TO VISIBILITY.

* THESE REPORTS ARE NOT UNDER NWS QUALITY CONTROL AND/OR DO NOT
  REPORT WEATHER SUCH AS PRECIPITATION AND FOG.

VTZ001>019-300900-
_____VERMONT_____


CITY           SKY/WX    TMP DP  RH WIND       PRES   REMARKS
BURLINGTON     PTSUNNY   63  54  72 S10       30.18S
MONTPELIER     PTSUNNY   58  54  86 SW3       30.26S
MORRISVILLE    CLOUDY    53  51  93 CALM      30.22F
ST. JOHNSBURY*   N/A     52  50  93 MISG      30.22S
MIDDLEBURY*    FAIR      63  55  76 S5        30.22S
RUTLAND*       SUNNY     55  52  88 SE10      30.24S
SPRINGFIELD    PTSUNNY   50  50 100 CALM      30.27R
HIGHGATE*      FAIR      60  55  85 S5        30.17S
NEWPORT*       FAIR      55  53  94 CALM      30.21F
BENNINGTON     SUNNY     56  52  86 SE7       30.25S
SUTTON*          N/A     54 N/A N/A MISG        N/A

_____LAKE CHAMPLAIN_____


CITY           SKY/WX    TMP DP  RH WIND       PRES   REMARKS
COLCHESTER RF*   N/A     64  59  82 S21         N/A
DIAMOND ISL*     N/A     63  55  77 S10         N/A

$$

NYZ007-026>031-035-052-083-300900-
_____NORTHERN NEW YORK_____


CITY           SKY/WX    TMP DP  RH WIND       PRES   REMARKS
PLATTSBURGH    PTSUNNY   55  54  96 CALM      30.16F
SARANAC LAKE   MOSUNNY   46  45  96 CALM      30.18F
MASSENA        MOSUNNY   56  56 100 CALM      30.13F FOG
OGDENSBURG*    SUNNY     57  55  94 S3        30.12S
POTSDAM*       SUNNY     64  55  72 S8        30.13F
WATERTOWN      SUNNY     63  52  67 S6        30.12F
FT DRUM        SUNNY     57  52  81 SE10      30.14S
ALBANY         SUNNY     60  54  80 S6        30.25R
GLENS FALLS    SUNNY     54  52  93 CALM      30.24R

$$
NHZ002-005-011-300900-
_____NEW HAMPSHIRE_____


CITY           SKY/WX    TMP DP  RH WIND       PRES   REMARKS
LEBANON        MOSUNNY   52  48  86 CALM      30.25S FOG
KEENE          SUNNY     52  45  76 CALM      30.28S
MT WASHINGTON  FOG       41  41 100 SW31        N/A  VSB 1/16
PLYMOUTH       CLOUDY    58  58 100 CALM      30.27S
WHITEFIELD     MOSUNNY   49  46  90 CALM      30.24S

$$

_____REGIONAL QUEBEC LOCATIONS_____


CITY           SKY/WX    TMP DP  RH WIND       PRES   REMARKS
MONTREAL       PTSUNNY   63  55  77 S7        30.13F
QUEBEC CITY    PTSUNNY   52  48  87 CALM      30.15F
SHERBROOKE     PTSUNNY   48  46  93 E2        30.19F

_____REGIONAL ONTARIO LOCATIONS_____


CITY           SKY/WX    TMP DP  RH WIND       PRES   REMARKS

______KEY______
VSB  - VISIBILITY IN MILES
WCI  - WIND CHILL INDEX
HX   - HEAT INDEX
$$
NNNN



USA.gov is the U.S. government's official web portal to all federal, state and local government web resources and services.